Regional Weather Roundup
Issued by NWS Lake Charles, LA

Home | Current Version | Previous Version | Text Only | Print | Product List | Glossary On
Versions: 1 2 3 4 5 6 7 8 9 10 11 12 13 14 15 16 17 18 19 20 21 22 23 24 25 26 27 28 29 30 31 32 33 34 35 36 37 38 39 40 41 42 43 44 45 46 47 48 49 50
000
ASUS44 KLCH 282210
RWRLCH
RWRLCH
REGIONAL WEATHER ROUNDUP
NATIONAL WEATHER SERVICE LAKE CHARLES LA
500 PM CDT TUE JUL 28 2015

Note: "fair" indicates few or no clouds below 12,000 feet with no
significant weather and/or obstructions to visibility.


ACROSS SOUTHEAST TEXAS

CITY           SKY/WX    TMP DP  RH WIND       PRES   REMARKS
BEAUMONT       MOSUNNY   96  73  47 S8        29.95S HX 105
BEAUMONT CITY  HVY RAIN  80  74  82 N10       30.00R
ORANGE         PTCLDY    93  67  41 CALM      29.98S
JASPER         SUNNY     97  68  38 E6        29.98F HX 102
$$

ACROSS CENTRAL LOUISIANA

CITY           SKY/WX    TMP DP  RH WIND       PRES   REMARKS
LEESVILLE      PTSUNNY   88  71  56 SE7       29.96S
FULLERTON        N/A     94  70  45 CALM      29.94F HX 100
ALEXANDRIA INT SUNNY     96  67  38 VRB5      29.94F HX 100
ESLER FIELD    MOSUNNY   98  68  37 VRB5      29.96F HX 103
DERIDDER         N/A     95  67  40 CALM      29.98S
OAKDALE        CLEAR     96  70  41 CALM      29.96F HX 102
OPELOUSAS        N/A     94  71  46 CALM      29.96F HX 101
$$

ACROSS SOUTHWEST AND SOUTH CENTRAL LOUISIANA

CITY           SKY/WX    TMP DP  RH WIND       PRES   REMARKS
SULPHUR        PTCLDY    90  74  58 W3        29.98S HX 100
LAKE CHARLES   MOSUNNY   93  74  53 MISG      29.96F HX 103
CHENNAULT INT  NOT AVBL
CAMERON PHI    CLEAR     90  75  62 S7        30.00F HX 100
DEQUINCY         N/A     92  73  53 E6        29.97F HX 101
JENNINGS       MOCLDY    89  73  60 SW3       29.97S
LAFAYETTE      MOSUNNY   93  72  50 S8        29.97S HX 101
NEW IBERIA     MOSUNNY   91  74  57 S7        29.98F HX 100
ABBEVILLE      CLOUDY    81  73  77 W8        29.98S
PATTERSON      SUNNY     91  72  52 CALM      29.98F
SALT POINT       N/A     91  73  55 VRB3      29.96F
$$

SELECTED SITES ACROSS THE REGION

CITY           SKY/WX    TMP DP  RH WIND       PRES   REMARKS
HOUSTON BUSH   MOSUNNY   97  71  42 SE12      29.93F HX 104
HOUSTON HOBBY  MOSUNNY   96  67  38 S10       29.93F HX 100
GALVESTON      SUNNY     91  76  61 SE9       29.98S HX 103
COLLEGE STAT   SUNNY     97  66  36 S12G17    29.93F HX 100
CONROE         SUNNY     98  61  29 SE10      29.94
HUNTSVILLE     SUNNY     98  62  30 SW5       29.94F
LUFKIN         SUNNY     98  64  32 VRB5      29.95F HX 100
SHREVEPORT     MOSUNNY   99  67  35 SE8       29.95F HX 103
MONROE         SUNNY     94  73  50 S3        29.96F HX 103
NATCHEZ MS     SUNNY     93  72  49 W7        29.98F HX 100
BATON ROUGE    MOSUNNY   97  69  40 NW3       29.96F HX 103
N.O. INTL ARPT MOSUNNY   93  68  43 SE7       29.96F
SLIDELL        SUNNY     94  70  45 VRB5      29.96F HX 100
$$

MARINE REPORTS

STATION/POSITION TIME  TEMP    WIND        PRES    VSBY  WAVE
                       AIR SEA DIR/SP/G                  HT/PER
                 (UTC) (F)     (DEG/KT/KT) (MB)    (MI)  (FT/S)
BUOY 30 S HIGH I 2150   87 88  140/  6/  8 1014.5F         1/ 5
SEA RIM ST PARK  2200   87     180/  9/ 11 1015.4F
PORT ARTHUR      2100      89  150/  8/ 10 1014.8F
SABINE PASS N    2100   89 89  160/  6/ 12 1015.2F
TEXAS POINT      NOT AVBL
CALCASIEU PASS   2100   87 91  210/  7/  9 1014.5F
LK CHARLES BEACH 2100   89 91                N/A
MARSH ISLAND     2100   90     220/  1/  5   N/A           0
FRESH WATER LOCK 2100   86 89  180/  8/  9 1015.2F
AMERADA PASS     NOT AVBL
$$


USA.gov is the U.S. government's official web portal to all federal, state and local government web resources and services.